290  
SXUS52 KTAE 162216  
OSOTAE  
OSOTAE  
NORTH FLORIDA/SOUTH ALABAMA/SOUTHWEST GEORGIA WEATHER ROUNDUP  
NATIONAL WEATHER SERVICE TALLAHASSEE FLORIDA  
600 PM EDT MON SEP 16 2019  
 
NOTE: "FAIR" INDICATES FEW OR NO CLOUDS BELOW 12,000 FEET WITH NO  
SIGNIFICANT WEATHER AND/OR OBSTRUCTIONS TO VISIBILITY.  
 
!FLZ017-115-028-034-025-162300   
..NORTH FLORIDA
 
 
 
CITY SKY/WX TMP DP RH WIND PRES REMARKS  
TALL INTL ARPT FAIR 93 72 50 VRB5 29.94F HX 101  
FSU LOVE BLDG N/A 93 61 33 N7 N/A HX 93  
APALACHICOLA FAIR 87 73 62 SW9 29.97S HX 94  
PERRY FAIR 93 70 46 NE8 29.95S HX 98  
CROSS CITY N/A 90 72 56 NW6 29.94S HX 97  
JACKSONVILLE FAIR 88 70 55 E10 29.93R HX 93  

 
 
!FLZ112-006-005-002-011-162300   
..FLORIDA PANHANDLE
 
 
 
CITY SKY/WX TMP DP RH WIND PRES REMARKS  
MARIANNA FAIR 95 63 34 VRB6 29.95S HX 96  
BONIFAY FAIR 97 60 29 E5 29.96F HX 97  
PANAMA CITY NW FAIR 89 73 59 SW8 29.96S HX 97  
TYNDALL AFB FAIR 86 74 67 W8 29.96S HX 93  
TYND DRONE APT FAIR 90 76 62 W6 29.97S HX 101  
DE FUNIAK SPR FAIR 87 74 66 W6 29.98F HX 95  
EGLIN AFB FAIR 87 73 62 SW6 29.97F HX 95  
DESTIN FAIR 86 76 71 W7 29.97F HX 96  
HURLBURT PTSUNNY 85 76 74 SW6 29.96F HX 95  
CRESTVIEW FAIR 89 71 55 W9 29.98F HX 95  
PENSACOLA NOT AVBL  

 
 
!ALZ063-066-162300   
..SOUTH ALABAMA
 
 
 
CITY SKY/WX TMP DP RH WIND PRES REMARKS  
DOTHAN FAIR 97 62 31 NE6 30.00F HX 98  
OZARK CAIRNS FAIR 96 58 28 E8 29.97F HX 95  
FT RUCKER HELI FAIR 96 59 29 N5 29.97S HX 95  
RUCKER HELI 3 FAIR 95 57 27 E8 29.97S HX 93  
RUCKER HELI 2 FAIR 96 58 28 NE7 29.96S HX 95  
FLORALA APT FAIR 96 59 29 E7 29.98F HX 95  
ANDALUSIA FAIR 99 59 26 NE8 29.98S HX 99  
TROY PTSUNNY 96 64 34 E3 29.99S HX 98  
EUFALA NOT AVBL  
MOBILE PTSUNNY 89 74 60 SW5 29.98F HX 98  

 
 
!GAZ120>161-162300   
..SOUTHWEST AND SOUTH CENTRAL GEORGIA
 
 
 
CITY SKY/WX TMP DP RH WIND PRES REMARKS  
THOMASVILLE FAIR 93 61 33 NE8 29.97S HX 93  
BAINBRIDGE FAIR 95 62 33 N10 29.96F HX 95  
MOODY AFB FAIR 92 68 45 NE7 29.94F HX 96  
VALDOSTA FAIR 92 64 39 NE5 29.95S HX 93  
MOULTRIE FAIR 91 59 33 N7 29.97S HX 90  
BLAKELY FAIR 91 55 29 CALM 29.97S  
ALBANY FAIR 95 64 35 E8 29.98S HX 97  
TIFTON FAIR N/A N/A N/A N7 29.96  
FITZGERALD FAIR 96 62 31 N6 29.98S HX 97  
CORDELE FAIR 95 59 30 N8 29.97F HX 94  
AMERICUS FAIR 97 55 24 E9 29.99S HAZE HX 95  
HOMERVILLE FAIR 91 59 33 NE7 29.95S HX 90  

 
 
!GMZ750-755-770-775-162300   
..COASTAL AND BUOY OBS
 
 
 
STATION/POSITION TIME TEMP WIND PRES VSBY WAVE  
AIR SEA DIR/SP/G HT/PER  
(UTC) (F) (DEG/KT/KT) (MB) (MI) (FT/S)  
KEATON BEACH 2200 86 280/ 6/ 9 1014.4F  
CEDAR KEY 2200 86 300/ 9/ 13 1013.9F  
C TOWER 2200 84 230/ 3/ 3 1015.2R  
APALACHICOLA BUO 2200 83 350/ 6/ 8 1015.5  
PANAMA CITY BUOY 2200 86 90/ 2/ 4 1015.4  
MOBILE BUOY 2200 84 110/ 6/ 8 1015.4  
ORANGE BCH AL BU 2200 84 86 CALM / 2 1015.5  

 
 
 
CLICK HERE TO GO TO PREVIOUS BULLETINS.

The Nexlab FL Page
The Nexlab GA Page
The Nexlab AL Page Main Text Page